Wind_Speed
5 5 5 5 4 4 4 3 3 3 3 2 3 3 4 4 5 4 4 5 5 6 6 7 6 6 6 6 6 7 7 8 7 7 7 8 8 9 8 8 8 8 8
5 5 5 5 5 4 4 4 4 4 4 4 4 4 4 4 5 5 5 5 5 6 6 6 6 7 7 7 8 8 8 8 8 8 8 8 8 8 8 8 8 8 8
5 5 5 6 6 5 5 5 6 6 5 5 5 5 5 5 4 4 5 5 6 7 7 7 7 8 8 9 9 10 10 10 10 10 10 10 9 9 9 9 10 9 9
6 6 6 6 6 6 6 6 7 7 7 6 6 6 6 5 5 6 6 7 7 7 7 8 8 8 9 10 10 11 11 12 12 11 11 11 10 11 10 11 11 11 11
7 7 7 7 7 7 7 7 7 8 8 8 7 7 7 7 7 7 7 7 8 8 8 8 9 9 10 11 11 12 12 12 12 12 12 12 12 11 12 12 12 12 13
9 9 8 9 9 8 8 8 8 9 9 9 8 8 8 8 8 8 7 8 9 9 10 10 10 11 11 12 12 13 13 13 13 13 13 13 13 13 13 13 13 13 14
9 9 9 10 10 10 10 10 10 10 10 10 10 9 9 9 10 9 9 9 9 10 10 11 12 12 13 13 13 13 13 13 14 14 14 14 14 14 14 14 15 14 14
10 10 10 11 11 12 12 12 11 11 11 12 11 11 10 10 10 10 10 10 10 11 11 11 11 12 14 14 13 13 14 14 15 15 15 15 15 14 14 14 14 14 14
12 12 12 13 13 13 13 13 13 13 13 13 13 13 12 11 11 11 12 12 12 12 12 12 12 13 14 14 14 14 14 15 15 16 16 15 15 14 15 15 14 14 14
13 13 14 14 14 14 14 14 14 14 14 15 15 15 14 13 13 13 13 13 13 13 12 12 13 14 14 14 15 14 15 15 15 16 15 15 15 14 14 14 14 14 15
14 14 15 14 15 15 15 16 16 16 16 16 16 16 16 16 16 16 15 14 14 14 14 14 13 14 14 14 15 15 15 16 16 16 15 14 14 13 14 14 14 15 16
15 16 16 16 16 16 16 16 16 17 17 16 17 17 17 17 17 17 17 16 16 16 16 16 15 15 15 15 16 16 16 17 16 16 16 15 15 14 14 15 15 15 16
16 17 17 17 17 17 17 17 17 17 17 17 18 18 18 18 17 18 18 17 17 17 17 16 15 15 15 15 16 16 16 17 16 16 16 15 16 16 16 16 16 16 16
18 18 19 19 19 19 19 19 19 19 18 19 19 19 19 19 19 19 19 18 18 18 18 17 17 17 16 16 16 16 17 17 17 17 17 16 16 17 17 17 17 17 17
20 20 20 20 21 21 21 21 20 20 20 20 20 20 20 20 20 20 20 20 20 19 19 19 18 18 18 17 18 18 17 17 17 17 17 17 17 18 18 18 17 17 17
21 21 21 21 21 21 21 21 21 22 21 21 21 21 21 21 21 21 22 22 22 21 21 20 19 20 20 19 19 19 18 18 18 18 18 18 18 18 18 17 17 17 17
20 21 21 21 21 21 21 21 22 23 23 23 22 22 21 22 22 22 22 22 23 22 21 21 20 20 21 21 22 22 21 20 20 20 19 19 18 19 18 17 17 17 17
21 21 21 22 22 22 22 23 23 22 22 23 23 23 22 23 23 23 23 23 23 23 23 22 22 22 22 22 22 23 22 22 21 21 20 20 19 19 19 19 18 18 18
22 22 22 22 22 22 23 23 23 23 23 23 23 23 23 24 24 24 23 23 24 24 24 23 23 23 23 23 23 23 23 22 21 21 21 21 21 20 20 20 19 19 18
23 23 23 22 23 23 23 23 23 23 24 24 24 24 24 24 24 23 23 24 24 24 24 24 24 24 24 24 24 23 23 23 23 22 22 21 21 21 21 20 20 19 19
24 24 23 23 23 23 23 23 23 23 24 24 24 24 24 25 24 24 24 24 24 24 25 25 25 25 25 25 24 24 24 24 24 23 22 22 22 21 21 21 21 21 20
24 24 24 24 24 23 23 23 24 23 24 24 23 23 24 25 24 24 24 24 24 25 25 25 25 25 25 25 26 25 24 24 24 24 23 23 22 21 21 22 22 22 21
24 25 25 25 24 24 24 24 24 24 24 24 23 24 25 24 24 24 24 24 24 24 25 25 24 24 24 24 25 24 24 24 24 23 24 24 23 22 22 22 22 22 21
25 25 24 24 24 24 24 24 24 24 24 24 23 23 23 23 23 23 24 24 24 24 25 24 24 25 24 24 24 24 23 24 24 24 24 23 23 23 22 22 22 22 23
25 24 24 24 24 24 24 24 24 24 23 23 23 23 23 23 23 24 24 24 24 24 24 24 24 24 24 24 24 24 24 23 23 23 23 23 22 22 22 22 22 22 22
24 24 24 24 24 24 24 24 23 23 23 22 22 23 23 23 24 24 24 24 24 24 24 24 24 24 24 24 25 25 25 25 24 23 23 24 23 23 22 22 21 21 22
Wind_Direction
351 342 323 316 314 305 299 307 321 333 327 320 317 318 301 282 298 292 277 283 283 279 272 263 259 267 269 268 272 277 284 286 287 286 284 285 275 269 271 272 272 267 267
345 336 328 322 319 312 311 315 318 318 319 316 304 300 299 285 289 282 275 275 278 284 281 272 269 269 274 276 277 283 288 293 293 291 288 288 278 273 273 269 270 270 269
334 330 325 322 321 320 315 312 316 316 309 309 305 299 297 285 280 279 276 274 276 283 281 277 278 276 276 279 282 285 286 289 290 287 288 286 279 274 273 271 268 268 267
321 317 314 313 310 313 314 314 315 316 313 307 306 303 300 294 284 284 285 283 283 282 282 284 283 280 279 280 283 285 286 286 287 286 288 287 285 277 274 271 269 270 270
310 307 306 306 305 305 305 306 305 305 307 304 305 305 302 295 291 291 290 288 286 285 284 289 285 284 285 284 287 287 287 287 287 288 288 286 287 284 278 274 270 270 271
304 303 303 303 302 301 301 301 298 297 299 299 299 300 298 297 296 294 293 294 289 286 285 286 284 283 286 286 287 287 285 284 285 287 289 287 286 284 282 276 272 272 273
301 298 297 299 299 298 297 297 297 297 295 295 295 297 298 297 294 294 291 292 294 295 292 288 283 283 286 288 286 284 286 285 286 288 289 288 286 284 282 277 273 273 273
302 298 297 296 296 298 298 296 295 296 295 295 294 292 294 294 291 289 287 289 293 293 291 291 288 284 284 287 284 282 284 286 284 286 287 287 288 285 281 279 274 273 273
302 297 297 297 296 294 294 295 295 293 291 291 292 293 292 290 288 288 288 290 290 291 291 288 290 288 284 285 284 283 283 285 286 285 287 287 286 283 282 282 278 274 272
301 299 297 297 297 296 294 292 293 293 291 289 289 290 290 288 285 283 285 287 289 290 293 288 286 286 287 287 283 284 285 286 290 291 288 287 286 283 285 284 281 275 273
300 300 299 298 297 296 295 292 290 289 289 287 287 287 286 284 284 285 283 285 287 287 291 290 288 286 286 285 284 287 288 288 289 289 288 288 288 287 284 280 280 276 274
299 299 297 296 295 294 294 293 292 290 287 287 286 284 283 284 285 287 285 285 286 285 287 290 287 283 284 285 285 288 288 287 289 290 289 288 286 283 281 280 278 277 273
297 296 294 293 292 292 293 293 291 290 287 286 284 283 284 285 286 286 287 286 285 286 286 287 286 283 284 285 285 285 288 288 288 290 288 284 282 282 282 280 277 276 274
293 293 292 290 290 290 289 288 288 286 285 283 283 283 283 284 284 284 286 286 287 286 284 283 282 281 283 285 285 285 286 287 286 285 284 281 281 281 281 279 276 275 275
291 291 292 292 290 289 287 285 284 283 282 281 282 282 282 282 281 282 282 283 286 284 282 282 281 276 278 287 286 285 284 281 281 281 280 281 281 281 279 276 274 274 274
291 291 290 289 288 288 287 286 284 282 280 279 280 281 281 281 281 280 280 281 284 286 285 282 280 278 277 281 285 285 283 285 283 282 282 282 282 281 280 276 274 273 273
292 291 290 288 288 287 286 286 284 283 281 279 279 279 279 281 282 280 279 280 282 283 284 282 280 280 280 281 282 282 284 287 285 283 282 280 280 280 278 275 274 275 274
293 293 290 288 287 287 286 286 284 284 283 280 280 279 279 280 282 281 279 280 281 281 282 281 280 280 280 281 281 283 283 281 280 280 278 277 278 277 275 273 272 273 273
297 296 292 288 287 287 287 286 284 283 283 282 281 281 281 281 281 281 281 281 281 282 281 280 280 280 279 280 281 282 281 282 281 278 278 277 275 272 273 270 269 271 271
300 298 293 290 286 286 287 287 286 285 284 284 283 281 282 282 282 282 282 281 281 281 279 278 279 279 278 278 280 279 279 279 277 276 278 277 274 271 271 267 266 267 269
300 299 296 293 288 287 286 286 287 287 285 284 283 282 281 281 282 282 281 280 280 280 279 279 279 279 277 277 278 278 277 276 275 276 276 275 274 272 271 267 265 266 268
299 298 297 295 292 290 286 285 286 286 286 285 284 282 281 280 280 281 281 281 281 281 281 280 280 279 278 278 278 279 277 275 274 274 275 275 275 273 270 267 265 265 267
298 298 297 295 293 291 289 286 286 286 285 284 284 284 282 280 280 280 281 282 282 281 281 281 280 279 279 279 279 279 278 277 276 274 274 275 274 273 269 266 264 264 263
299 299 298 297 294 294 293 289 287 286 285 285 285 285 283 281 281 281 281 281 282 282 282 281 281 280 279 280 280 280 279 279 278 276 274 273 272 272 270 267 265 266 264
300 300 300 298 297 296 295 293 289 289 288 286 285 284 284 284 283 283 283 282 281 282 280 280 280 279 279 280 280 280 280 279 279 277 276 274 273 271 270 268 266 266 266
300 300 300 299 298 295 294 293 291 290 288 286 285 284 284 283 283 283 284 281 280 280 279 280 281 280 279 280 281 280 281 279 278 276 274 273 271 269 266 266 267 265 265
Height
5881 5881 5881 5881 5879 5880 5880 5880 5880 5880 5880 5880 5880 5880 5880 5880 5880 5880 5881 5881 5881 5882 5882 5882 5883 5883 5884 5884 5884 5884 5884 5884 5884 5884 5884 5884 5884 5884 5884 5884 5884 5884 5884
5881 5881 5880 5880 5880 5880 5880 5880 5880 5880 5880 5880 5879 5879 5879 5879 5879 5879 5879 5880 5880 5880 5881 5881 5881 5882 5882 5882 5882 5883 5882 5882 5882 5882 5882 5882 5882 5882 5882 5882 5882 5882 5882
5881 5880 5880 5880 5879 5879 5879 5879 5879 5879 5879 5879 5879 5878 5878 5878 5878 5878 5878 5878 5879 5879 5879 5879 5879 5880 5880 5881 5881 5881 5881 5880 5880 5880 5880 5880 5879 5879 5879 5880 5880 5880 5880
5880 5880 5880 5879 5879 5879 5879 5879 5878 5878 5878 5878 5878 5877 5877 5877 5877 5877 5877 5877 5877 5877 5878 5878 5878 5878 5878 5878 5878 5878 5878 5878 5878 5877 5877 5877 5877 5877 5877 5877 5877 5877 5877
5879 5879 5879 5879 5878 5878 5878 5878 5877 5877 5877 5877 5876 5876 5876 5876 5876 5875 5875 5875 5876 5876 5876 5876 5876 5876 5876 5876 5876 5876 5876 5876 5875 5875 5875 5875 5874 5874 5874 5874 5874 5874 5874
5878 5878 5878 5878 5877 5877 5877 5876 5876 5876 5875 5875 5875 5875 5875 5874 5874 5874 5874 5874 5874 5874 5874 5874 5874 5874 5874 5874 5873 5873 5873 5873 5872 5872 5872 5872 5871 5871 5871 5871 5871 5871 5871
5877 5877 5876 5876 5876 5875 5875 5875 5874 5874 5874 5873 5873 5873 5873 5872 5872 5872 5872 5872 5872 5871 5871 5871 5871 5871 5871 5871 5870 5870 5870 5869 5869 5869 5868 5868 5868 5868 5867 5867 5867 5867 5867
5875 5875 5875 5874 5874 5873 5873 5872 5872 5872 5871 5871 5871 5870 5869 5871 5870 5870 5869 5869 5868 5869 5869 5868 5867 5868 5868 5868 5868 5867 5867 5866 5866 5866 5865 5864 5864 5864 5863 5863 5863 5863 5863
5873 5873 5872 5872 5871 5871 5870 5870 5869 5869 5869 5868 5868 5867 5866 5867 5867 5867 5867 5866 5866 5866 5866 5865 5864 5865 5865 5865 5864 5864 5863 5863 5862 5862 5861 5860 5860 5859 5859 5859 5859 5859 5859
5871 5870 5870 5869 5869 5868 5867 5867 5866 5866 5866 5865 5865 5864 5864 5864 5864 5864 5863 5863 5862 5862 5862 5862 5861 5861 5861 5861 5860 5860 5859 5859 5858 5857 5857 5856 5856 5855 5855 5855 5855 5855 5855
5868 5867 5866 5866 5865 5865 5864 5864 5863 5862 5861 5861 5861 5861 5860 5860 5860 5860 5860 5860 5859 5858 5858 5858 5857 5857 5857 5856 5856 5855 5855 5854 5854 5853 5852 5852 5852 5851 5851 5851 5851 5851 5851
5865 5864 5863 5862 5862 5861 5860 5860 5859 5858 5857 5857 5857 5857 5856 5856 5856 5856 5856 5855 5855 5854 5854 5853 5853 5853 5853 5852 5851 5850 5850 5849 5849 5848 5848 5848 5847 5847 5847 5847 5846 5846 5846
5862 5860 5859 5858 5858 5857 5856 5855 5855 5854 5853 5853 5852 5852 5852 5852 5851 5851 5851 5851 5850 5850 5849 5849 5848 5848 5848 5848 5847 5846 5846 5845 5844 5844 5843 5843 5843 5842 5842 5842 5842 5842 5842
5857 5856 5855 5854 5853 5852 5852 5851 5850 5849 5849 5848 5848 5847 5847 5847 5847 5846 5846 5846 5846 5845 5845 5845 5844 5844 5843 5843 5842 5841 5841 5840 5839 5839 5839 5838 5838 5838 5837 5837 5837 5837 5837
5853 5851 5850 5849 5848 5847 5846 5846 5845 5844 5844 5843 5843 5842 5842 5842 5842 5841 5841 5841 5841 5840 5840 5839 5839 5838 5838 5836 5837 5836 5835 5835 5834 5834 5834 5834 5833 5833 5832 5832 5832 5832 5832
5848 5846 5845 5844 5843 5842 5841 5840 5839 5838 5838 5837 5837 5837 5836 5836 5836 5835 5835 5835 5835 5835 5834 5834 5833 5833 5832 5832 5832 5830 5829 5829 5829 5829 5829 5829 5828 5828 5827 5827 5827 5827 5827
5842 5841 5840 5838 5837 5836 5835 5834 5833 5832 5831 5831 5831 5831 5830 5830 5830 5829 5829 5829 5829 5828 5828 5828 5827 5827 5826 5826 5826 5825 5824 5824 5823 5824 5824 5823 5823 5823 5822 5822 5822 5822 5823
5837 5835 5834 5833 5831 5830 5829 5828 5827 5826 5825 5824 5824 5824 5824 5824 5823 5823 5822 5822 5822 5821 5821 5821 5821 5821 5821 5820 5820 5819 5819 5818 5818 5818 5818 5817 5818 5817 5817 5817 5817 5817 5817
5831 5830 5828 5826 5825 5824 5823 5822 5820 5819 5819 5818 5818 5817 5817 5817 5816 5816 5815 5815 5815 5815 5814 5814 5814 5814 5814 5814 5813 5813 5813 5812 5812 5812 5811 5811 5811 5811 5811 5811 5811 5812 5812
5825 5824 5822 5820 5819 5818 5817 5815 5814 5813 5812 5811 5811 5810 5810 5810 5809 5809 5808 5808 5808 5808 5808 5808 5808 5807 5807 5807 5807 5806 5806 5805 5805 5805 5805 5804 5805 5805 5805 5805 5805 5806 5806
5820 5818 5815 5813 5812 5811 5810 5809 5808 5807 5806 5805 5804 5803 5803 5803 5802 5802 5802 5801 5801 5801 5800 5800 5800 5800 5800 5800 5799 5799 5798 5798 5798 5798 5798 5798 5798 5798 5799 5799 5799 5800 5800
5814 5812 5810 5808 5806 5805 5804 5803 5801 5800 5799 5798 5797 5797 5796 5796 5795 5795 5794 5794 5794 5793 5793 5793 5792 5792 5792 5792 5792 5791 5790 5791 5791 5791 5791 5791 5791 5792 5792 5792 5792 5793 5793
5807 5805 5803 5802 5800 5799 5797 5796 5795 5794 5793 5792 5791 5790 5789 5788 5788 5787 5787 5787 5786 5786 5785 5785 5785 5784 5784 5784 5784 5783 5783 5783 5783 5783 5783 5784 5784 5785 5785 5785 5785 5786 5786
5801 5799 5797 5795 5794 5793 5791 5789 5788 5787 5786 5785 5784 5783 5782 5782 5781 5781 5780 5780 5779 5779 5778 5778 5778 5777 5777 5777 5776 5776 5776 5775 5776 5775 5775 5776 5776 5777 5777 5778 5778 5779 5779
5795 5793 5791 5790 5788 5786 5784 5783 5781 5780 5779 5778 5777 5776 5775 5775 5775 5774 5773 5773 5772 5772 5771 5770 5770 5770 5769 5769 5769 5769 5769 5768 5768 5768 5768 5768 5769 5769 5769 5770 5771 5771 5772
5789 5787 5785 5783 5781 5780 5778 5776 5775 5773 5772 5771 5770 5770 5769 5768 5768 5767 5766 5766 5765 5765 5764 5764 5763 5763 5762 5762 5762 5761 5761 5760 5760 5760 5760 5761 5761 5761 5762 5763 5763 5764 5765